Time,TemperatureF,DewpointF,PressureIn,WindDirection,WindDirectionDegrees,WindSpeedMPH,WindSpeedGustMPH,Humidity,HourlyPrecipIn,Conditions,Clouds,dailyrainin,SoftwareType,DateUTC
2013-06-17 00:02:00,60.6,44.8,29.68,South,171,0.0,0.0,56,0.00,,,0.00,VWS V13.01,2013-06-17 04:02:00,
2013-06-17 00:32:00,59.4,41.3,29.68,South,171,0.0,0.0,51,0.00,,,0.00,VWS V13.01,2013-06-17 04:32:00,
2013-06-17 01:02:00,57.9,37.3,29.67,South,171,0.0,0.0,46,0.00,,,0.00,VWS V13.01,2013-06-17 05:02:00,
2013-06-17 01:32:00,57.7,34.2,29.68,South,171,0.0,0.0,41,0.00,,,0.00,VWS V13.01,2013-06-17 05:32:00,
2013-06-17 02:02:00,57.0,32.3,29.68,South,169,0.0,1.0,39,0.00,,,0.00,VWS V13.01,2013-06-17 06:02:00,
2013-06-17 02:32:00,56.9,31.6,29.68,South,170,0.0,0.0,38,0.00,,,0.00,VWS V13.01,2013-06-17 06:32:00,
2013-06-17 03:02:00,56.4,30.5,29.68,South,169,0.0,0.0,37,0.00,,,0.00,VWS V13.01,2013-06-17 07:02:00,
2013-06-17 03:32:00,55.4,30.2,29.68,South,170,0.0,0.0,38,0.00,,,0.00,VWS V13.01,2013-06-17 07:32:00,
2013-06-17 04:02:00,54.9,29.1,29.69,South,170,0.0,0.0,37,0.00,,,0.00,VWS V13.01,2013-06-17 08:02:00,
2013-06-17 04:32:00,54.4,28.0,29.70,South,170,0.0,1.0,36,0.00,,,0.00,VWS V13.01,2013-06-17 08:32:00,
2013-06-17 05:02:00,53.9,27.6,29.71,South,170,0.0,0.0,36,0.00,,,0.00,VWS V13.01,2013-06-17 09:02:00,
2013-06-17 05:32:00,54.9,28.5,29.73,South,169,0.0,1.0,36,0.00,,,0.00,VWS V13.01,2013-06-17 09:32:00,
2013-06-17 06:02:00,56.2,29.6,29.73,SW,219,0.0,1.0,36,0.00,,,0.00,VWS V13.01,2013-06-17 10:02:00,
2013-06-17 06:32:00,58.0,30.5,29.74,SW,220,0.0,2.0,35,0.00,,,0.00,VWS V13.01,2013-06-17 10:32:00,
2013-06-17 07:02:00,63.9,35.7,29.74,WNW,296,5.0,6.0,35,0.00,,,0.00,VWS V13.01,2013-06-17 11:02:00,
2013-06-17 07:32:00,65.1,52.2,29.75,NW,311,5.0,10.0,63,0.00,,,0.00,VWS V13.01,2013-06-17 11:32:00,
2013-06-17 08:02:00,67.1,55.0,29.75,NW,313,6.0,8.0,65,0.00,,,0.00,VWS V13.01,2013-06-17 12:02:00,
2013-06-17 08:32:00,68.6,56.0,29.76,NNW,340,6.0,10.0,64,0.00,,,0.00,VWS V13.01,2013-06-17 12:32:00,
2013-06-17 09:02:00,70.1,56.5,29.75,WNW,294,5.0,11.0,62,0.00,,,0.00,VWS V13.01,2013-06-17 13:02:00,
2013-06-17 09:32:00,71.3,57.6,29.75,NNW,328,4.0,10.0,62,0.00,,,0.00,VWS V13.01,2013-06-17 13:32:00,
2013-06-17 10:02:00,72.0,56.9,29.74,West,269,5.0,16.0,59,0.00,,,0.00,VWS V13.01,2013-06-17 14:02:00,
2013-06-17 10:32:00,73.0,57.4,29.74,West,275,8.0,13.0,58,0.00,,,0.00,VWS V13.01,2013-06-17 14:32:00,
2013-06-17 11:02:00,74.6,58.4,29.74,WNW,302,9.0,13.0,57,0.00,,,0.00,VWS V13.01,2013-06-17 15:02:00,
2013-06-17 11:32:00,74.4,59.6,29.73,SSW,206,3.0,15.0,60,0.00,,,0.00,VWS V13.01,2013-06-17 15:32:00,
2013-06-17 12:02:00,73.6,59.8,29.73,SW,214,15.0,16.0,62,0.00,,,0.00,VWS V13.01,2013-06-17 16:02:00,
2013-06-17 12:32:00,72.7,59.8,29.73,WSW,240,14.0,17.0,64,0.00,,,0.00,VWS V13.01,2013-06-17 16:32:00,
2013-06-17 13:02:00,72.4,59.1,29.73,WSW,241,10.0,18.0,63,0.00,,,0.00,VWS V13.01,2013-06-17 17:02:00,
2013-06-17 13:32:00,72.2,59.4,29.73,SW,225,14.0,19.0,64,0.00,,,0.00,VWS V13.01,2013-06-17 17:32:00,
2013-06-17 14:02:00,73.3,60.0,29.73,SSW,195,10.0,22.0,63,0.00,,,0.00,VWS V13.01,2013-06-17 18:02:00,
2013-06-17 14:32:00,73.4,60.0,29.72,SW,230,14.0,23.0,63,0.00,,,0.00,VWS V13.01,2013-06-17 18:32:00,
2013-06-17 15:02:00,75.6,60.3,29.71,SW,218,11.0,19.0,59,0.00,,,0.00,VWS V13.01,2013-06-17 19:02:00,
2013-06-17 15:32:00,72.2,59.4,29.74,West,275,16.0,23.0,64,0.00,,,0.00,VWS V13.01,2013-06-17 19:32:00,
2013-06-17 16:02:00,72.3,59.9,29.75,NNW,336,7.0,18.0,65,0.00,,,0.00,VWS V13.01,2013-06-17 20:02:00,
2013-06-17 16:32:00,66.3,53.8,29.79,NW,325,10.0,19.0,64,0.00,,,0.00,VWS V13.01,2013-06-17 20:32:00,
2013-06-17 17:02:00,63.3,38.6,29.75,ESE,123,3.0,12.0,40,0.01,,,0.01,VWS V13.01,2013-06-17 21:02:00,
2013-06-17 17:32:00,65.0,37.4,29.77,SW,223,1.0,6.0,36,0.02,,,0.02,VWS V13.01,2013-06-17 21:32:00,
2013-06-17 18:02:00,65.5,37.9,29.76,SSW,201,0.0,2.0,36,0.02,,,0.02,VWS V13.01,2013-06-17 22:02:00,
2013-06-17 18:32:00,66.1,37.7,29.75,SSE,163,0.0,4.0,35,0.03,,,0.04,VWS V13.01,2013-06-17 22:32:00,
2013-06-17 19:02:00,65.5,39.9,29.76,South,182,0.0,4.0,39,0.03,,,0.05,VWS V13.01,2013-06-17 23:02:00,
2013-06-17 19:32:00,65.2,41.5,29.77,South,184,0.0,4.0,42,0.04,,,0.06,VWS V13.01,2013-06-17 23:32:00,
2013-06-17 20:02:00,63.3,44.4,29.78,SSW,199,1.0,5.0,50,0.04,,,0.08,VWS V13.01,2013-06-18 00:02:00,
2013-06-17 20:32:00,62.0,41.0,29.79,SSW,211,0.0,3.0,46,0.05,,,0.10,VWS V13.01,2013-06-18 00:32:00,
2013-06-17 21:02:00,61.6,38.3,29.80,SW,225,0.0,6.0,42,0.07,,,0.13,VWS V13.01,2013-06-18 01:02:00,
2013-06-17 21:32:00,61.4,36.2,29.80,SW,225,0.0,3.0,39,0.09,,,0.17,VWS V13.01,2013-06-18 01:32:00,
2013-06-17 22:02:00,61.3,35.5,29.81,SW,225,0.0,3.0,38,0.12,,,0.22,VWS V13.01,2013-06-18 02:02:00,
2013-06-17 22:32:00,61.5,35.0,29.81,WSW,248,2.0,3.0,37,0.13,,,0.26,VWS V13.01,2013-06-18 02:32:00,
2013-06-17 23:02:00,61.7,35.2,29.80,West,280,0.0,3.0,37,0.14,,,0.31,VWS V13.01,2013-06-18 03:02:00,
2013-06-17 23:32:00,60.9,34.5,29.80,West,280,0.0,0.0,37,0.14,,,0.36,VWS V13.01,2013-06-18 03:32:00,